Погода в Коста-дель-Соль

Испания     36°39′50″N   4°31′15″W
темп.,
°C
ветер,
м/с
пор.,
м/с
влажн.,
%
обл.,
%
осадки,
мм/ч
давл.,
гПа
погр.,
м
21 апреля, ср
ср2123:00+17ссз355686 0.0 1013210
02:00+15ссз466599 0.0 1013247
05:00+14сз347290 0.0 1012116
08:00+13сз3475100 0.0 1012115
11:00+18сз3551100 0.0 1013755
14:00+22сз353777 0.0 10121549
17:00+23з1433100 0.0 10102255
20:00+20с3545100 0.0 1011540
22 апреля, чт
чт2223:00+18ссз345187 0.0 1013198
02:00+16ссз3452100 0.0 1013136
05:00+14ссз2359100 0.0 101286
08:00+14сз1266100 0.0 101350
11:00+18з1260100 0.2 1014679
14:00+21ююз235433 1.3 10141301
17:00+21ююв3353100 1.0 1012850
20:00+19юв226564 1.1 1013196
23 апреля, пт
пт2323:00+17ссв11735 0.0 101530
02:00+16всв226810 0.0 101540
05:00+14в249252 0.0 1015309
08:00+14вюв249087 0.1 1016349
11:00+16юв5975100 0.2 1018874
14:00+19юв6958100 0.2 10171088
17:00+18юв6862100 0.0 1016978
20:00+16юв5971100 0.0 1016798
24 апреля, сб
сб2423:00+15ююв3685100 0.0 1017554
02:00+15ююв3684100 0.1 1016632
05:00+14ююв2583100 0.0 1015451
08:00+14в2584100 0.0 1013399
11:00+15юз238096 0.6 1014353
14:00+18ююв466650 0.6 1012822
17:00+19ююв4862100 0.0 1009777
20:00+17ююз3472100 0.5 1009457
25 апреля, вс
вс2523:00+15зсз1289100 1.5 1011176
02:00+15зюз3493100 4.8 1010453
05:00+15зюз128993 0.9 1010165
08:00+14ссз118789 1.1 101095
11:00+18ююз237145 0.0 1011793
14:00+19ю336281 0.1 10101151
17:00+21ююв33540 0.0 10091199
20:00+21ю2252100 0.0 1009464